Clarksville, TN

3:28 AM CST on January 22, 2018 (GMT -0600)
Outlaw

Weather History for KCKV - March, 2013

Change the Weather History Date:

Sunday, March 17, 2013

  Actual Average Record
Temperature  
Mean Temperature 45 °F 49 °F  
Max Temperature 47 °F 61 °F 82 °F (1989)
Min Temperature 43 °F 37 °F 22 °F (1970)
Degree Days  
Heating Degree Days 20    
Month to date heating degree days 375  
Since 1 July heating degree days 3292  
Cooling Degree Days 0    
Month to date cooling degree days 0  
Year to date cooling degree days  
Moisture  
Dew Point 41 °F    
Average Humidity 86    
Maximum Humidity 96    
Minimum Humidity 76    
Precipitation  
Precipitation 0.07 in 0.13 in 1.30 in (2002)
Month to date precipitation 2.51 2.00  
Year to date precipitation 9.48  
Sea Level Pressure  
Sea Level Pressure 29.92 in    
Wind  
Wind Speed 9 mph (NE)    
Max Wind Speed 16 mph    
Max Gust Speed 22 mph    
Visibility 5 miles    
Events Rain    
T = Trace of Precipitation, MM = Missing Value Source: NWS Daily Summary

Daily Weather History Graph

Daily Weather History Graph

Search for Another Location

Airport or City:

Trip Planner

Search our weather history database for the weather conditions in past years. The results will help you decide how hot, cold, wet, or windy it might be!

Date:

Astronomy

Mar. 17, 2013 Rise Set
Actual Time 6:57 AM CDT 6:59 PM CDT
Civil Twilight 6:31 AM CDT 7:24 PM CDT
Nautical Twilight 6:01 AM CDT 7:54 PM CDT
Astronomical Twilight 5:31 AM CDT 8:25 PM CDT
Moon 10:18 AM CDT (3/17) No Moon Set
Length of Visible Light 12h 53m
Length of Day
12h 01m
Waxing Crescent, 31% of the Moon is Illuminated
Mar 17
Waxing Crescent
Mar 19
First Quarter
Mar 27
Full
Apr 2
Last Quarter
Apr 10
New

Hourly Weather History & Observations

Time (CDT) Temp. Windchill Dew Point Humidity Pressure Visibility Wind Dir Wind Speed Gust Speed Precip Events Conditions
12:52 AM 46.9 °F - 41.0 °F 80% 29.94 in 6.0 mi NNE 3.5 mph - N/A   Haze
1:52 AM 46.0 °F 41.9 °F 41.0 °F 83% 29.94 in 5.0 mi North 8.1 mph - N/A   Haze
2:52 AM 46.9 °F - 41.0 °F 80% 29.93 in 5.0 mi NNE 5.8 mph - N/A   Haze
3:52 AM 46.0 °F 41.9 °F 39.9 °F 79% 29.93 in 6.0 mi NNE 8.1 mph - N/A   Haze
4:52 AM 44.1 °F 38.6 °F 39.0 °F 82% 29.95 in 5.0 mi North 10.4 mph - N/A   Haze
5:52 AM 44.1 °F 40.1 °F 39.9 °F 85% 29.96 in 4.0 mi NNE 6.9 mph - N/A   Mostly Cloudy
6:07 AM 44.6 °F 41.4 °F 39.2 °F 81% 29.96 in 4.0 mi NNE 5.8 mph - N/A   Overcast
6:22 AM 44.6 °F 40.7 °F 41.0 °F 87% 29.96 in 4.0 mi NNE 6.9 mph - N/A   Overcast
6:52 AM 45.0 °F 40.1 °F 41.0 °F 86% 29.98 in 4.0 mi NE 9.2 mph - N/A   Overcast
7:52 AM 45.0 °F 40.6 °F 41.0 °F 86% 29.99 in 4.0 mi NE 8.1 mph - N/A   Overcast
8:52 AM 45.0 °F 41.2 °F 42.1 °F 90% 30.00 in 3.0 mi NE 6.9 mph - N/A   Overcast
9:52 AM 46.0 °F 42.5 °F 42.1 °F 86% 30.00 in 4.0 mi NE 6.9 mph - N/A   Overcast
10:52 AM 46.0 °F 40.6 °F 42.1 °F 86% 29.99 in 5.0 mi NE 11.5 mph - N/A   Overcast
11:52 AM 46.9 °F - 42.1 °F 83% 29.97 in 6.0 mi ENE 11.5 mph - N/A   Haze
12:08 PM 46.4 °F 42.4 °F 42.8 °F 87% 29.97 in 6.0 mi ENE 8.1 mph - N/A   Haze
12:52 PM 46.9 °F - 42.1 °F 83% 29.98 in 5.0 mi NNE 9.2 mph - N/A   Haze
1:19 PM 46.4 °F 40.7 °F 42.8 °F 87% 29.99 in 1.8 mi North 12.7 mph - 0.00 in Rain Light Rain
1:37 PM 44.6 °F 38.4 °F 42.8 °F 93% 29.97 in 1.2 mi NNE 12.7 mph - N/A Rain Light Rain
1:52 PM 45.0 °F 38.9 °F 43.0 °F 93% 29.97 in 1.5 mi NNE 12.7 mph - N/A Rain Light Rain
2:14 PM 44.6 °F 39.7 °F 42.8 °F 93% 29.95 in 2.0 mi NE 9.2 mph - 0.00 in Rain Light Rain
2:27 PM 44.6 °F 38.8 °F 42.8 °F 93% 29.94 in 3.0 mi NNE 11.5 mph - 0.01 in Rain Light Rain
2:52 PM 44.1 °F 38.1 °F 41.0 °F 89% 29.93 in 4.0 mi NE 11.5 mph - 0.01 in Rain Light Rain
3:29 PM 42.8 °F 35.8 °F 41.0 °F 93% 29.89 in 5.0 mi East 13.8 mph - 0.01 in Rain Light Rain
3:52 PM 44.1 °F 38.6 °F 41.0 °F 89% 29.90 in 8.0 mi ESE 10.4 mph - 0.02 in Rain Light Rain
4:14 PM 44.6 °F 40.2 °F 41.0 °F 87% 29.91 in 5.0 mi East 8.1 mph - 0.01 in Rain Light Rain
4:52 PM 44.1 °F 39.5 °F 41.0 °F 89% 29.90 in 10.0 mi East 8.1 mph - 0.02 in Rain Light Rain
5:52 PM 43.0 °F 36.4 °F 41.0 °F 93% 29.85 in 10.0 mi East 12.7 mph - 0.01 in   Overcast
6:52 PM 43.0 °F 37.7 °F 41.0 °F 93% 29.86 in 10.0 mi ENE 9.2 mph - 0.00 in   Overcast
7:52 PM 43.0 °F 38.2 °F 41.0 °F 93% 29.85 in 10.0 mi East 8.1 mph - N/A   Overcast
8:52 PM 43.0 °F 37.7 °F 41.0 °F 93% 29.83 in 7.0 mi East 9.2 mph - N/A   Overcast
9:32 PM 44.6 °F 40.7 °F 41.0 °F 87% 29.82 in 7.0 mi East 6.9 mph - N/A   Overcast
9:52 PM 44.1 °F 37.7 °F 41.0 °F 89% 29.82 in 6.0 mi ESE 12.7 mph - N/A   Overcast
10:52 PM 44.1 °F 39.0 °F 41.0 °F 89% 29.81 in 6.0 mi ESE 9.2 mph - N/A   Overcast
11:52 PM 44.1 °F 40.1 °F 42.1 °F 93% 29.76 in 6.0 mi SE 6.9 mph - N/A   Overcast